TIME,DELAY(SENSOR),PRES,T(CTD),SAL,OXYGEN,RAWTEMP,T(OPTODE),TCPHASE,FLUOR,BETA(BETA700),BETA(BETA412),BETA(BETA440),CDOM,C(CSC),ED(ED411.90),ED(ED443.80),ED(ED489.40),ED(ED554.70),LU(LU412.20),LU(LU443.80),LU(LU489.40),LU(LU555.00),COMP,TILTX,TILTX(TILTY),CHECK
1366301728,5808,496.9400024414062500,16.7243995666503900,36.2751998901367200,187.2653961181640600,197.3659057617187500,16.7277393341064450,33.9603500366210940,51,112,97,82,69,11327,2146957449,2147510180,2147270043,2147460242,2147079570,2146954349,2147659876,2147118985,2748,-1,8,54494
1366301855,5805,486.3900146484375000,17.2117004394531250,36.3975982666015600,206.5899963378906200,181.6161956787109400,17.2025909423828120,32.5773200988769500,50,100,95,80,68,11340,2146956900,2147516251,2147269440,2147459602,2147079396,2146955035,2147659428,2147117714,3390,-1,8,33354
1366301982,5806,475.9400024414062500,17.3600006103515620,36.4325981140136700,221.6517944335937500,176.4947052001953000,17.3570594787597660,31.6896896362304700,50,98,95,80,67,11341,2146955657,2147517037,2147267456,2147454720,2147085220,2146953718,2147655862,2147126345,495,-1,8,27836
1366302123,5808,464.7300109863281000,17.5009994506835940,36.4584007263183600,224.0162963867187500,171.9860992431640600,17.4930801391601560,31.5058097839355470,50,98,96,79,67,11342,2146955117,2147514450,2147268288,2147454272,2147079981,2146957266,2147653741,2147125366,41,-1,8,60170
1366302262,5804,453.7300109863281000,17.5627994537353500,36.4635009765625000,223.1786956787109400,169.5050964355468800,17.5679397583007800,31.5152797698974600,51,99,96,79,66,11343,2146954422,2147514998,2147267885,2147457170,2147079488,2146954395,2147649600,2147127478,3533,-1,8,4507
1366302411,5805,440.1400146484375000,17.7831001281738280,36.5102005004882800,227.6795959472656200,162.3883972167968800,17.7827301025390620,31.1898097991943360,50,100,95,80,68,11343,2146956553,2147515977,2147268745,2147453001,2147079277,2146956790,2147648054,2147125805,3329,-1,8,33776
1366302514,5805,429.2399902343750000,17.8938007354736330,36.5279006958007800,228.6705932617187500,158.7837982177734400,17.8915596008300780,31.0916004180908200,50,100,95,79,67,11339,2146962057,2147516278,2147266953,2147454134,2147081472,2146958866,2147647963,2147125988,3482,-1,8,57434
1366302617,5804,418.3200073242187500,17.9603004455566400,36.5368995666503900,228.4656066894531200,156.6094055175781200,17.9572105407714840,31.0725708007812500,50,101,95,79,69,11340,2146955739,2147516608,2147266139,2147452598,2147081673,2146957613,2147647021,2147125211,2778,-1,8,18001
1366302737,5804,406.6900024414062500,18.0228004455566400,36.5432014465332000,227.5628967285156200,154.6246032714843800,18.0171508789062500,31.0910301208496100,50,100,96,81,67,11334,2146959826,2147513170,2147266953,2147453467,2147085440,2146961590,2147650185,2147128749,2342,-1,8,43769
1366302864,5805,395.7099914550781000,18.0893001556396500,36.5511016845703100,226.5265960693359400,152.3898010253906200,18.0846500396728500,31.1128807067871100,50,100,95,80,67,11336,2146954816,2147512594,2147264347,2147451072,2147075620,2146961408,2147648740,2147124662,1583,-1,8,45551
1366302993,5801,384.5199890136719000,18.0664005279541000,36.5304985046386700,218.9873962402343800,153.2561035156250000,18.0584793090820300,31.5116901397705080,50,103,96,82,68,11336,2146956150,2147516306,2147262930,2147447725,2147079424,2146960539,2147648009,2147128182,2041,-1,8,33390
1366303120,5804,373.7600097656250000,18.1091003417968750,36.5413017272949200,218.8930969238281200,151.6945953369140600,18.1056499481201170,31.4953098297119140,50,106,96,81,69,11330,2146954240,2147515401,2147265453,2147450413,2147071378,2146960027,2147650852,2147126564,1125,-1,8,23632
1366303259,5802,362.1300048828125000,18.2185001373291000,36.5565986633300800,219.4494934082031200,147.9367065429687500,18.2191791534423830,31.4152297973632800,50,104,96,80,68,11331,2146957376,2147516763,2147264073,2147448822,2147069110,2146960850,2147654436,2147126208,1378,-1,8,59958
1366303400,5805,351.2600097656250000,18.2996006011962900,36.5665016174316400,218.0959930419922000,145.2064971923828000,18.3016796112060550,31.4494895935058600,50,105,98,81,68,11334,2146957677,2147514020,2147265453,2147448036,2147073618,2146959881,2147652854,2147124489,2019,-2,9,52426
1366303539,5805,341.1600036621094000,18.3750991821289060,36.5741004943847660,217.0366058349609400,142.9671020507812500,18.3693504333496100,31.4749603271484380,50,103,96,81,68,11328,2146958107,2147512658,2147262701,2147448036,2147075218,2146965860,2147655899,2147124297,1659,-1,9,58610
1366303684,5808,329.0400085449219000,18.3195991516113280,36.5405006408691400,210.1728973388672000,144.6755981445312500,18.3177204132080080,31.8678092956542970,51,107,96,80,69,11328,2146959561,2147515922,2147264064,2147451300,2147074825,2146961874,2147655259,2147126363,1930,-1,8,16132
1366303799,5805,318.0799865722656000,18.4204006195068360,36.5486984252929700,199.9454956054687500,140.9788970947265600,18.4294490814209000,32.3953399658203100,50,104,95,81,68,11326,2146958811,2147512118,2147265828,2147449078,2147077220,2146960749,2147652379,2147128192,1816,-1,8,1561
1366303914,5804,307.0299987792969000,18.6294994354248050,36.5970001220703100,209.8200073242187500,134.5567932128906200,18.6236305236816400,31.7491493225097660,50,102,95,80,68,11330,2146956196,2147514550,2147266569,2147446336,2147072548,2146963108,2147656009,2147127094,1183,-1,8,3963
1366304031,5805,295.6900024414062500,18.7968997955322270,36.6206016540527340,214.3506011962890600,128.9783020019531200,18.7923908233642580,31.4286003112792970,50,103,96,82,67,11328,2146955108,2147513984,2147263350,2147445741,2147079049,2146964516,2147658395,2147125129,695,-1,9,41639
1366304134,5801,285.4700012207031000,18.8572998046875000,36.6194992065429700,217.7418975830078000,126.7773971557617200,18.8589897155761720,31.2193794250488280,50,104,97,81,68,11325,2146953252,2147512320,2147267090,2147447378,2147074925,2146973056,2147665289,2147129472,3492,-1,9,53374
1366304237,5802,274.8099975585937500,19.0433998107910160,36.6276016235351560,216.6036071777343800,119.9561996459961000,19.0654907226562500,31.1877708435058600,51,103,96,80,67,11326,2146957092,2147514742,2147265874,2147447652,2147076032,2146976155,2147666249,2147126930,2523,-2,8,35360
1366304356,5806,263.8999938964844000,19.0699996948242200,36.6130981445312500,223.1210937500000000,119.9837036132812500,19.0646495819091800,30.8510894775390620,50,106,97,83,66,11319,2146958518,2147513261,2147265426,2147446381,2147079725,2146973577,2147676306,2147128676,1281,-1,9,32121
1366304507,5804,252.6600036621093800,19.1795005798339840,36.6207008361816400,223.6455993652343800,116.5822982788086000,19.1676692962646500,30.7791690826416000,50,107,97,81,67,11317,2146954258,2147513728,2147263954,2147445622,2147079442,2146981906,2147687606,2147132032,1221,-1,9,35926
1366304663,5805,240.8000030517578000,19.3619995117187500,36.6367988586425800,223.9687042236328000,109.9438018798828100,19.3688201904296880,30.6748008728027340,51,109,96,82,67,11316,2146958921,2147514761,2147265709,2147443300,2147082066,2146997074,2147728073,2147132150,1409,-1,9,44218
1366304802,5806,229.8600006103515600,19.4939994812011720,36.6133995056152340,237.0133972167968800,105.9862976074218800,19.4888000488281250,29.9871406555175780,50,110,98,83,65,11309,2146957046,2147515968,2147265645,2147445403,2147084315,2147011254,2147749970,2147130240,2266,-1,8,16424
1366304974,5805,216.3300018310547000,19.7593994140625000,36.6276016235351560,245.4965972900390600,96.8934936523437500,19.7646503448486330,29.4785900115966800,55,118,100,82,64,11297,2146956050,2147515931,2147266112,2147444480,2147087049,2147043291,2147803337,2147131858,1030,-1,8,765
1366305089,5805,205.3099975585937500,19.8064994812011720,36.6293983459472660,250.5594024658203000,95.6308135986328100,19.8029804229736330,29.2372093200683600,55,117,100,83,63,11293,2146957467,2147516361,2147269385,2147440658,2147090916,2147073499,2147859181,2147140297,956,-1,8,29046
1366305180,5805,196.4499969482422000,19.8733997344970700,36.6328010559082000,250.4897003173828000,93.2254180908203100,19.8760108947753900,29.2094707489013670,57,115,101,85,65,11300,2146956562,2147517988,2147273691,2147441362,2147097664,2147140233,2147976009,2147146166,1068,-2,8,30812
1366305255,5808,189.3600006103515600,19.9654998779296880,36.6375999450683600,250.1363983154297000,90.3328170776367200,19.9638500213623050,29.1879291534423830,58,115,101,84,64,11294,2146957531,2147520265,2147274185,2147442752,2147099675,2147151926,2147999524,2147145609,591,-2,8,54458
1366305310,5803,184.1600036621093800,19.9953994750976560,36.6375007629394500,250.5462951660156200,89.4176864624023400,19.9916496276855470,29.1581707000732420,59,119,101,85,64,11289,2146957906,2147516141,2147268626,2147441920,2147093586,2147062253,2147813568,2147135734,3466,-1,8,53200
1366305365,5803,179.0599975585937500,20.0627994537353500,36.6333007812500000,250.5715942382812500,87.3491363525390600,20.0544891357421880,29.1305809020996100,61,123,101,84,64,11285,2146958061,2147522020,2147277897,2147442185,2147111533,2147210294,2148082413,2147153728,3187,-2,8,13928
1366305420,5808,173.9799957275390600,20.0788002014160160,36.6306991577148440,250.3852996826172000,86.6525497436523400,20.0756607055664060,29.1300201416015620,59,119,100,84,64,11291,2146959936,2147522724,2147284114,2147442660,2147129069,2147322569,2148286610,2147165312,2670,-1,8,31781
1366305475,5803,168.9299926757812500,20.1056995391845700,36.6311988830566400,250.5200958251953000,85.6269836425781200,20.1068305969238280,29.1109104156494140,59,120,100,86,64,11288,2146956141,2147520832,2147275721,2147441938,2147112694,2147167597,2147988580,2147147392,2264,-1,8,27707
1366305530,5808,163.9900054931640600,20.1611003875732420,36.6285018920898440,251.1802978515625000,83.8591766357421900,20.1605606079101560,29.0593891143798830,60,124,99,85,63,11282,2146959670,2147519012,2147274102,2147440877,2147111579,2147151396,2147955620,2147146404,2808,-1,8,35936
1366305609,5805,157.7100067138672000,20.3845005035400400,36.6278991699218750,248.5209960937500000,76.7897567749023400,20.3755493164062500,29.0861606597900400,60,119,100,84,64,11287,2146961728,2147532150,2147300598,2147437705,2147184548,2147574162,2148709705,2147186843,335,-2,9,40492
1366305664,5805,154.1000061035156200,20.3721008300781250,36.6166000366210940,250.6347961425781200,77.2720489501953100,20.3608703613281250,28.9993991851806640,62,119,101,87,63,11283,2146962614,2147533714,2147307867,2147441179,2147199707,2147642477,2148805476,2147192685,581,-1,9,54686
1366305731,5806,149.8800048828125000,20.3924999237060550,36.5956001281738300,254.1578979492187500,75.2719573974609400,20.4217300415039060,28.8212795257568360,68,129,103,87,62,11265,2146962934,2147539821,2147314441,2147438656,2147234944,2147768676,2149027904,2147204050,641,-1,9,51064
1366305798,5805,145.8200073242187500,20.8169002532959000,36.6529998779296900,246.7879943847656200,62.5247192382812500,20.8099498748779300,28.9814205169677730,58,114,98,85,65,11289,2146962422,2147534326,2147302491,2147437805,2147206866,2147611593,2148736786,2147188059,1128,-1,9,20446
1366305853,5805,142.3999938964843800,20.9640998840332030,36.6674003601074200,238.7565002441406200,56.8465194702148440,20.9830894470214840,29.2721195220947270,57,112,98,83,65,11302,2146959570,2147542902,2147323867,2147440228,2147284361,2147949120,2149277577,2147224356,1673,-1,9,21413
1366305932,5808,138.0000000000000000,21.2912998199462900,36.6994018554687500,228.6968994140625000,47.5459785461425800,21.2670001983642580,29.6276092529296880,57,107,97,84,66,11308,2146960868,2147523739,2147280941,2147437184,2147158208,2147318491,2148174939,2147159698,2660,-2,9,16691
1366306011,5804,135.0399932861328000,21.3574008941650400,36.7039985656738300,226.8657989501953000,45.0111694335937500,21.3444404602050780,29.6839904785156250,58,108,98,83,66,11306,2146962422,2147533513,2147301001,2147438436,2147237650,2147648822,2148746441,2147191186,1967,-2,9,6721
1366306126,5808,130.9799957275390600,21.4384994506835940,36.7044982910156250,226.3217010498047000,42.2408103942871100,21.4291191101074220,29.6748409271240230,58,107,97,83,66,11307,2146967030,2147555090,2147343826,2147437860,2147421750,2148418249,2150013878,2147271689,1759,-2,9,31571
1366306237,5801,126.7399978637695300,21.5112991333007800,36.6977996826171900,228.1358032226562500,39.7740592956543000,21.5045509338378900,29.5549392700195300,59,108,98,83,66,11304,2146970267,2147560411,2147353581,2147436297,2147485110,2148580416,2150245842,2147284900,1398,-2,9,3077
1366306328,5805,122.6200027465820300,21.6362991333007800,36.6950988769531250,229.0310058593750000,35.4498100280761700,21.6368408203125000,29.4564800262451170,61,107,97,83,64,11304,2146972333,2147566427,2147368237,2147433773,2147574162,2148809682,2150576192,2147304320,1199,-2,9,50488
1366306419,5805,118.9199981689453100,21.7651004791259770,36.7047996520996100,225.5019989013672000,31.0020408630371100,21.7730007171630860,29.5708503723144530,60,108,97,82,65,11307,2146978176,2147577088,2147381888,2147437220,2147684736,2149082203,2150974317,2147331501,830,-1,9,7801
1366306524,5806,114.8899993896484400,21.9008007049560550,36.6950988769531250,225.6929931640625000,26.9524707794189450,21.8970603942871100,29.5097694396972660,60,107,97,83,65,11308,2146963904,2147540946,2147310729,2147434706,2147378340,2147899446,2149015076,2147218121,1288,-2,9,64147
1366306639,5804,110.8000030517578100,22.1590995788574220,36.7131004333496100,227.0635070800781200,19.0736408233642580,22.1386795043945300,29.3424797058105470,60,116,99,82,65,11304,2146968731,2147546176,2147313728,2147430427,2147436452,2148025746,2149200155,2147226797,1671,-2,9,23723
1366306766,5806,107.3399963378906200,22.3488998413085940,36.7136993408203100,227.6340026855468800,12.8848199844360350,22.3286895751953120,29.2361698150634770,63,113,97,82,64,11299,2146967625,2147548900,2147321133,2147431716,2147503917,2148161289,2149372854,2147240557,1476,-1,9,16218
1366306905,5804,103.0699996948242200,22.6711006164550780,36.6944007873535160,225.8970947265625000,2.5984439849853516,22.6449699401855470,29.1896400451660160,74,116,98,83,66,11286,2146971209,2147545188,2147317376,2147429714,2147480676,2148011291,2149103222,2147226450,1364,-2,9,13629
1366307044,5804,99.4300003051757800,22.8439006805419920,36.6801986694335940,223.6779937744140600,-3.2460629940032960,22.8249397277832030,29.2234592437744140,85,113,98,82,66,11281,2147014180,2147643227,2147508809,2147437339,2148739702,2151355218,2154184356,2147580379,1079,-2,9,36458
1366307158,5807,97.2600021362304700,22.9328994750976560,36.6669998168945300,224.9337005615234400,-6.2371110916137695,22.9171199798584000,29.1242904663085940,85,118,98,84,64,11274,2146980260,2147559067,2147347730,2147429696,2147790116,2148671350,2150044004,2147301174,974,-1,9,33750
1366307225,5807,95.1500015258789000,22.9461002349853500,36.6627006530761700,227.2935943603515600,-6.9870109558105470,22.9402408599853500,29.0006504058837900,93,121,100,86,64,11274,2147003547,2147620461,2147455698,2147437220,2148586624,2150592100,2152920118,2147508086,458,-2,9,36508
1366307292,5805,92.9300003051757800,23.0058994293212900,36.6557006835937500,229.1705017089843800,-8.8068361282348630,22.9963607788085940,28.8882007598876950,97,121,99,85,63,11265,2147010057,2147618048,2147464393,2147434148,2148664886,2150578660,2152803830,2147514889,651,-1,9,40205
1366307347,5806,91.0800018310546900,23.0114002227783200,36.6553993225097660,229.7525939941406200,-9.1715097427368160,23.0076103210449220,28.8560600280761720,103,124,99,83,64,11261,2147019821,2147638198,2147509065,2147435520,2148889627,2151039241,2153532626,2147570980,746,-2,9,10569
1366307402,5806,89.0000000000000000,23.0251998901367200,36.6505012512207000,230.2100067138672000,-9.5232992172241210,23.0184593200683600,28.8299007415771500,103,121,101,86,64,11258,2147048128,2147691611,2147603117,2147441856,2149763117,2152787017,2156020809,2147784347,668,-2,9,22945
1366307481,5805,85.2300033569336000,23.0436000823974600,36.6335983276367200,231.0561981201172000,-10.1653099060058600,23.0382709503173830,28.7820396423339840,111,127,100,85,62,11244,2147047780,2147672859,2147562148,2147440484,2149719460,2152312448,2155148251,2147742034,572,-2,9,1786
1366307536,5806,82.0599975585937500,23.1296997070312500,36.6287994384765600,232.6726989746093800,-12.6171197891235350,23.1139202117919920,28.6756095886230470,115,129,100,87,64,11239,2147035986,2147644864,2147493293,2147436132,2149313499,2151197046,2153403008,2147627949,405,-1,9,54462
1366307591,5802,78.8600006103515600,23.1984996795654300,36.6193008422851560,234.7138061523437500,-15.0875101089477540,23.1901893615722660,28.5498504638671880,126,135,103,87,62,11229,2147022006,2147615250,2147437622,2147433325,2148908224,2150241920,2151983625,2147511881,585,-2,8,31613
1366307646,5804,75.9199981689453100,23.2534999847412100,36.6078987121582000,236.8341979980468800,-16.8974094390869140,23.2460899353027340,28.4302406311035160,131,145,102,87,61,11206,2147026660,2147619090,2147439780,2147433755,2149013430,2150280457,2151963017,2147525632,613,-1,9,20737
1366307701,5807,73.1900024414062500,23.2654991149902340,36.6043014526367200,237.7048950195312500,-17.6047191619873050,23.2679500579834000,28.3817405700683600,138,144,102,89,63,11201,2147118592,2147766208,2147736292,2147459081,2151634285,2154841664,2158372690,2148168201,786,-2,9,31975
1366307756,5805,70.5899963378906200,23.3076000213623050,36.5875015258789060,238.7541046142578000,-18.7627696990966800,23.3037300109863280,28.3197593688964840,151,138,101,88,64,11197,2147154925,2147805641,2147794121,2147465014,2152676205,2156358116,2160365494,2148418715,457,-2,9,3371
1366307813,5806,68.1200027465820300,23.3757991790771500,36.5533981323242200,239.4738006591797000,-20.8372097015380860,23.3678493499755860,28.2616405487060550,144,140,103,90,62,11171,2147090688,2147703104,2147595081,2147449609,2150806683,2152857124,2155325056,2147951579,665,-2,9,15820
1366307868,5804,66.1999969482421900,23.3915996551513670,36.5423011779785160,240.4750976562500000,-21.3654403686523440,23.3841800689697270,28.2102394104003900,152,145,108,91,63,11169,2147121526,2147744950,2147674934,2147458816,2151714240,2154260955,2157316251,2148201170,1126,-2,9,4549
1366307923,5807,64.5299987792968800,23.3964004516601560,36.5250015258789060,241.7274017333984400,-21.7626590728759770,23.3964595794677730,28.1493892669677730,145,140,103,88,64,11145,2147102683,2147714934,2147621156,2147455899,2151173330,2153221824,2155796123,2148047744,796,-1,9,61045
1366307978,5806,62.7999992370605500,23.4304008483886720,36.5171012878418000,241.7422943115234400,-22.6577301025390620,23.4241409301757800,28.1376991271972660,151,148,102,88,63,11146,2147099300,2147708763,2147589394,2147453238,2151130057,2152944484,2155261421,2148029394,408,-1,9,64185
1366308033,5805,61.0900001525878900,23.4309997558593750,36.5023002624511700,242.4434967041015600,-22.7584400177001950,23.4272594451904300,28.1052494049072270,149,140,105,88,62,11146,2147107693,2147713609,2147596205,2147453101,2151313773,2153068416,2155283026,2148059840,175,-1,9,29282
1366308100,5804,59.1500015258789060,23.6096000671386720,36.5219993591308600,243.8103027343750000,-28.0143299102783200,23.5898990631103500,27.9800395965576170,162,149,103,88,63,5203,2147433819,2148169069,2148442121,2147566710,2160143460,2166619209,2173632164,2150584274,364,-1,8,61072
1366308179,5805,56.7299995422363300,23.6728000640869140,36.5131988525390600,244.4169006347656200,-30.4598407745361330,23.6656398773193360,27.9233093261718750,144,143,104,88,64,10575,2147433792,2148150582,2148414436,2147581193,2159991149,2165805714,2172198098,2150537042,792,-2,9,63594
1366308234,5806,54.3300018310546900,23.6756992340087900,36.4790000915527340,243.2890930175781200,-31.2371807098388670,23.6897201538085940,27.9632205963134770,138,141,103,89,63,11141,2147220406,2147845156,2147812964,2147485494,2154195922,2156714614,2159534912,2148787547,791,-1,9,40753
1366308375,5807,49.8699989318847660,23.6949996948242200,36.4025001525878900,248.1338043212890600,-31.6702098846435550,23.7031402587890620,27.7472801208496100,90,134,103,89,64,11169,2147797430,2148600420,2149031963,2147686784,2169988260,2179073572,2187309485,2153453101,323,-2,9,27684
1366308409,5807,48.8699989318847660,23.7201995849609380,36.3895988464355500,247.8119964599609400,-32.2747497558593750,23.7218704223632800,27.7535591125488280,89,136,102,88,64,11166,2147803574,2148615917,2149034742,2147657856,2169445385,2178333165,2186090669,2153210258,46,-2,9,57462
1366308490,5805,46.4500007629394500,23.7369995117187500,36.3809013366699200,249.3482971191406200,-32.8605117797851560,23.7400207519531250,27.6805000305175780,83,134,102,88,61,11169,2148074596,2148941604,2149410486,2147681581,2177396571,2189097709,2198011090,2155201490,3119,-2,9,10651
1366308535,5806,44.4099998474121100,23.7360992431640620,36.3793983459472660,250.4420013427734400,-32.6823997497558600,23.7345008850097660,27.6361694335937500,83,134,103,90,62,11167,2148180754,2149061494,2149512914,2147690029,2180563986,2192878656,2201248448,2155897444,2871,-2,9,29909
1366308568,5805,42.8300018310546900,23.7332992553710940,36.3670997619628900,250.0675048828125000,-33.1817092895507800,23.7499809265136720,27.6460704803466800,80,139,103,88,63,11162,2148346998,2149255277,2149744402,2147723099,2185265060,2198915328,2207161920,2157156571,2772,-2,9,45631
1366308613,5806,40.7500000000000000,23.8754997253417970,36.3103981018066400,250.6309967041015600,-37.1920394897460940,23.8743305206298830,27.5727996826171880,80,143,105,89,62,11153,2148528329,2149461750,2149961243,2147761938,2189865490,2204550857,2212482633,2158249563,2659,-2,9,29022
1366308670,5802,38.7500000000000000,24.0359001159667970,36.2997016906738300,251.2534027099609400,-42.2232093811035160,24.0304908752441400,27.4849891662597660,80,138,104,90,61,11144,2148830226,2149809554,2150397833,2147829476,2198128246,2214843721,2222820580,2160502665,2140,-2,8,35982
1366308739,5802,36.9399986267089840,24.2607002258300780,36.2896003723144500,254.3713989257812500,-48.8910789489746100,24.2377204895019530,27.2732505798339840,74,139,105,89,60,11133,2147715492,2148374921,2148360475,2147570313,2166937024,2171095533,2171953444,2151235410,2007,-2,9,63428
1366308832,5804,34.7900009155273440,24.4279994964599600,36.2877998352050800,251.8912963867187500,-54.6981201171875000,24.4184398651123050,27.3060092926025400,81,138,105,89,57,11114,2149416173,2150457188,2151147611,2147976493,2215172269,2234964763,2241890486,2165185920,2097,-1,9,18128
1366308901,5806,32.6300010681152340,24.4584007263183600,36.2933006286621100,249.9167022705078000,-56.1233711242675800,24.4628391265869140,27.3719596862792970,78,137,105,88,60,11105,2149744301,2150821851,2151604406,2148090011,2224497910,2245675666,2251832749,2167863762,1889,-2,9,27654
1366308958,5805,30.6200008392334000,24.4577999114990230,36.2934989929199200,250.7837982177734400,-56.2995109558105500,24.4683208465576170,27.3330802917480470,74,138,104,90,63,11115,2150214665,2151336576,2152228388,2148232859,2237694034,2261462866,2267226020,2171776877,1899,-2,9,45967
1366309015,5805,28.5900001525878900,24.4596996307373050,36.2937011718750000,252.8047027587890600,-56.3814392089843750,24.4708690643310550,27.2472991943359380,71,139,104,88,58,11110,2149073764,2149919232,2150312146,2147949385,2202645092,2213887186,2214216694,2160784896,2004,-2,9,14297
1366309095,5803,25.5599994659423830,24.4589996337890620,36.2938003540039060,252.5177001953125000,-56.1692008972168000,24.4642601013183600,27.2618904113769530,73,136,104,88,62,11073,2148955364,2149697865,2149924736,2147910308,2201659236,2211012653,2209361325,2160331126,2228,-1,8,36332
